sat.trackr.live / text

‹ back to catalog

STARLINK-35717

NORAD 66839 · 2025-280U

PAYLOAD ACTIVE UNKNOWN

§ Identity

Operator
Country
US
Launch date
2025-12-02
Launch site
AFWTR
Launch vehicle
Mass (kg)
RCS (m²)

Purposes: comms

External: N2YO · Heavens-Above · Gunter

§ Orbital elements

Epoch: 2026-05-25T02:42:45.343584Z

Period
96.11 min
Inclination
70.0007°
Eccentricity
0.0004039
Mean motion
14.98334883 rev/d
Perigee alt
569.2 km
Apogee alt
574.8 km
Semi-major
6,950.2 km
B*
1.9898e-4
RAAN
141.7544°
Arg perigee
265.0653°
Mean anomaly
95.0045°
Rev number
2,752

§ Raw data

STARLINK-357171 66839U 25280U   26145.11302481  .00002282  00000+0  19898-3 0  99982 66839  70.0007 141.7544 0004039 265.0653  95.0045 14.98334883 27527

JSON: /api/v1/satellites/66839 · /tle

For live sub-satellite position, see the globe view (requires WebGL).

§ Visibility from observer

Set your observer location to see the next 7 days of passes ≥ 10°. The values pass through the URL so the page stays shareable.

No JS? Fill the form by hand. The geolocation button needs JavaScript.